Location: Unspecified
(0.0000°N, 0.0000°E)
Time: 09:03:28
(UTC+00:00)

Envisat - Pass Details

Date: 18 February 2018
Orbit: 764 x 766 km, 98.2° (Epoch: 17 February)

Event Time Altitude Azimuth Distance (km) Brightness Sun altitude
Rises 18:52:57 0° 134° (SE) 3,228 5.9 -9.6°
Reaches altitude 10° 18:56:20 10° 110° (ESE) 2,299 5.0 -10.4°
Enters shadow 18:58:58 14° 78° (ENE) 2,004 4.5 -11.0°
Exits shadow 19:02:24 - 39° (NE) 2,457 5.2 -11.9°
Sets 19:05:00 0° 22° (NNE) 3,214 5.9 -12.5°
